Location: Summit Observatory
(39.5293°N, 75.7290°W)
Time: 02:27:35
(UTC-04:00)

Amateur Radio Satellites - All Passes

Search period start: 22 September 2017 01:57
Search period end: 23 September 2017 01:57
Location: Summit Observatory, 39.5293°N, 75.7290°W

Satellite Date Start Highest point End Downlink Frequencies (MHz)
Time Altitude Azimuth
QB50P2 22 Sep 02:01:53 02:04:58 19° 293° (WNW) 02:08:02 145.880/145.840
O/OREOS (USA 219) 22 Sep 02:03:33 02:06:11 15° 99° (E) 02:08:49 437.305
MOZHAYETS 4 22 Sep 02:11:44 02:13:36 12° 62° (ENE) 02:15:28
BUGSAT 1 22 Sep 02:16:02 02:20:13 68° 285° (WNW) 02:24:25 437.445
50 SAT 22 Sep 02:19:37 02:22:07 20° 264° (W) 02:24:37 437.505
ITUPSAT 1 22 Sep 02:20:38 02:23:38 17° 63° (ENE) 02:26:38 437.325
M-CUBED/EXP-1 PRIME 22 Sep 02:21:13 02:24:22 39° 292° (WNW) 02:27:25 437.505
ISS 22 Sep 02:38:32 02:40:35 15° 18° (NNE) 02:42:36 437.550
Gurwin Techsat 1B 22 Sep 02:42:34 02:47:49 58° 101° (E) 02:53:02 435.225
UKube-1 22 Sep 02:53:05 02:56:38 25° 264° (W) 03:00:14 .
DX 1 22 Sep 02:56:59 02:59:35 16° 267° (W) 03:02:11 434.975-435.025
BEESAT 22 Sep 02:57:00 03:01:24 39° 70° (ENE) 03:05:49 436.000
AO-7 22 Sep 03:00:53 03:05:20 15° 90° (E) 03:09:45 .
Tancredo 1 22 Sep 03:04:42 03:07:25 85° 218° (SW) 03:10:07 437.200
Oscar 19 22 Sep 03:13:50 03:18:47 48° 289° (WNW) 03:23:42 437.125/150
nSIGHT-1 22 Sep 03:21:27 03:24:16 26° 27° (NNE) 03:27:05 .
O/OREOS (USA 219) 22 Sep 03:40:49 03:45:08 46° 296° (WNW) 03:49:32 437.305
MOZHAYETS 4 22 Sep 03:45:33 03:50:08 69° 259° (W) 03:54:46
ITUPSAT 1 22 Sep 03:56:22 04:00:59 52° 259° (W) 04:05:41 437.325
CUBESAT XI-V 22 Sep 04:06:53 04:11:16 41° 72° (ENE) 04:15:41 437.345
ISS 22 Sep 04:14:17 04:17:34 66° 36° (NE) 04:20:50 437.550
ITAMSAT 1 22 Sep 04:14:18 04:19:12 41° 99° (E) 04:24:05 435.822/435.867
KKS-1 22 Sep 04:21:00 04:24:16 21° 67° (ENE) 04:27:33 437.445
Gurwin Techsat 1B 22 Sep 04:23:45 04:27:16 18° 297° (WNW) 04:30:47 435.225
BEESAT 3 22 Sep 04:24:46 04:27:36 18° 46° (NE) 04:30:23 437.485
BEESAT 22 Sep 04:35:43 04:39:17 21° 266° (W) 04:42:52 436.000
AO-7 22 Sep 04:50:48 04:59:09 84° 106° (ESE) 05:07:27 .
STARS 22 Sep 04:51:12 04:54:05 18° 65° (ENE) 04:56:58 437.465
nSIGHT-1 22 Sep 04:57:36 05:00:40 38° 224° (SW) 05:03:42 .
RS-15 22 Sep 05:07:56 05:19:09 45° 108° (ESE) 05:30:26 29.354- 29.394
DOVE 4 22 Sep 05:13:28 05:15:28 13° 92° (E) 05:17:29 437.250
AO-85 22 Sep 05:16:19 05:20:01 25° 50° (NE) 05:23:56 145.980
CUBESAT XI-V 22 Sep 05:45:24 05:48:46 19° 267° (W) 05:52:09 437.345
ISS 22 Sep 05:52:12 05:53:39 12° 231° (SW) 05:55:04 437.550
ITAMSAT 1 22 Sep 05:54:18 05:58:24 24° 295° (WNW) 06:02:31 435.822/435.867
KKS-1 22 Sep 05:56:32 06:00:35 35° 262° (W) 06:04:38 437.445
BEESAT 3 22 Sep 06:01:35 06:05:20 41° 244° (WSW) 06:09:01 437.485
BEESAT 2 22 Sep 06:04:15 06:08:16 59° 57° (ENE) 06:12:12 435.950
XW-2D 22 Sep 06:11:06 06:13:12 14° 92° (E) 06:15:19 145.860 - 145.880
XW-2B 22 Sep 06:22:49 06:25:36 19° 94° (E) 06:28:22 145.730 - 145.750
XW-2F 22 Sep 06:24:21 06:27:06 19° 94° (E) 06:29:49 145.980 - 146.000
STARS 22 Sep 06:25:59 06:30:05 41° 261° (W) 06:34:13 437.465
STRAND 1 22 Sep 06:30:29 06:33:56 19° 64° (ENE) 06:37:23 437.568
XW-2C 22 Sep 06:43:28 06:47:00 35° 98° (E) 06:50:29 145.795 - 145.815
AO-7 22 Sep 06:45:00 06:50:57 23° 307° (NW) 06:56:53 .
DOVE 4 22 Sep 06:49:18 06:53:23 49° 286° (WNW) 06:57:37 437.250
NUDT-PHONESAT 22 Sep 06:53:14 06:56:37 32° 97° (E) 06:59:58 437.300
LilacSat-2 22 Sep 06:53:24 06:57:09 51° 100° (E) 07:00:51 437.200
AO-85 22 Sep 06:56:18 07:00:28 37° 245° (WSW) 07:04:57 145.980
KAITUO 1B 22 Sep 07:18:33 07:22:18 75° 101° (ESE) 07:26:00 145.475/437.950
RS-15 22 Sep 07:19:17 07:31:20 58° 310° (NW) 07:43:29 29.354- 29.394
CUTE-I 22 Sep 07:28:26 07:33:47 83° 105° (ESE) 07:39:08 437.470
XW-2D 22 Sep 07:44:01 07:47:31 35° 288° (WNW) 07:50:59 145.860 - 145.880
BEESAT 2 22 Sep 07:44:13 07:45:27 11° 252° (WSW) 07:46:40 435.950
SEEDS 22 Sep 07:48:49 07:52:12 23° 95° (E) 07:55:33 437.485
XW-2B 22 Sep 07:56:32 07:59:46 26° 289° (WNW) 08:02:57 145.730 - 145.750
XW-2F 22 Sep 07:57:59 08:01:11 26° 289° (WNW) 08:04:22 145.980 - 146.000
HO-68 22 Sep 07:59:27 08:06:29 54° 101° (E) 08:13:29 435.675
STRAND 1 22 Sep 08:07:43 08:12:40 52° 260° (W) 08:17:40 437.568
CUTE 1.7 + AOD 2 22 Sep 08:12:46 08:17:02 77° 102° (ESE) 08:21:14 437.475
AAUSAT CUBESAT 2 22 Sep 08:17:00 08:20:10 21° 94° (E) 08:23:18 437.432
XW-2C 22 Sep 08:18:36 08:20:51 15° 293° (WNW) 08:23:06 145.795 - 145.815
CUBEBUG 2 22 Sep 08:23:37 08:28:15 56° 100° (E) 08:32:55 437.445
NUDT-PHONESAT 22 Sep 08:27:54 08:30:12 16° 293° (WNW) 08:32:29 437.300
LilacSat-2 22 Sep 08:29:48 08:30:56 11° 295° (WNW) 08:32:04 437.200
UWE-3 22 Sep 08:34:21 08:38:48 42° 98° (E) 08:43:13 435.000/436.395/437.385
XW-2A 22 Sep 09:07:56 09:11:14 44° 286° (WNW) 09:14:29 145.665 - 145.685
CUTE-I 22 Sep 09:10:44 09:13:05 13° 300° (WNW) 09:15:26 437.470
FO-29 22 Sep 09:18:17 09:24:07 79° 75° (ENE) 09:29:28 435.910
AO-73 22 Sep 09:24:00 09:28:35 71° 101° (ESE) 09:33:06 145.935
SEEDS 22 Sep 09:24:20 09:27:49 26° 290° (WNW) 09:31:17 437.485
Oscar 11 22 Sep 09:25:16 09:29:29 48° 99° (E) 09:33:40 .
ZACube-1 22 Sep 09:25:47 09:30:24 83° 102° (ESE) 09:34:58 437.345
RS-15 22 Sep 09:37:58 09:47:20 24° 339° (NNW) 09:56:36 29.354- 29.394
PRISM 22 Sep 09:44:14 09:47:30 23° 68° (ENE) 09:50:46 437.425
HO-68 22 Sep 09:47:50 09:53:49 30° 298° (WNW) 09:59:49 435.675
UNISAT 6 22 Sep 09:50:34 09:54:46 53° 73° (ENE) 09:59:04 437.425
AAUSAT CUBESAT 2 22 Sep 09:52:04 09:55:36 28° 290° (WNW) 09:59:05 437.432
Max Valier Satellite 22 Sep 09:52:16 09:54:15 14° 92° (E) 09:56:14 145.860
DELFI C3 22 Sep 10:00:56 10:04:12 25° 96° (E) 10:07:26 145.870
CUBEBUG 2 22 Sep 10:01:39 10:04:23 15° 295° (WNW) 10:07:08 437.445
UWE-3 22 Sep 10:11:35 10:14:54 20° 294° (WNW) 10:18:13 435.000/436.395/437.385
TIGRISAT 22 Sep 10:14:37 10:18:56 90° 256° (WSW) 10:23:21 435.000
EO-88 22 Sep 10:55:16 10:58:55 66° 101° (E) 11:02:32 145.990 - 145.960
AIST 2D 22 Sep 10:55:24 10:58:22 26° 71° (ENE) 11:01:22 435.315
POLYITAN 1 22 Sep 11:00:56 11:03:09 14° 65° (ENE) 11:05:23 437.675
AO-73 22 Sep 11:02:29 11:04:11 12° 297° (WNW) 11:05:53 145.935
Oscar 11 22 Sep 11:02:45 11:05:11 15° 295° (WNW) 11:07:37 .
EO-79 22 Sep 11:05:21 11:07:52 16° 65° (ENE) 11:10:25 145.935-145.965
ZACube-1 22 Sep 11:05:24 11:05:57 10° 298° (WNW) 11:06:30 437.345
FO-29 22 Sep 11:07:42 11:09:41 12° 269° (W) 11:11:37 435.910
QB50P2 22 Sep 11:17:25 11:20:46 23° 68° (ENE) 11:24:08 145.880/145.840
PRISM 22 Sep 11:19:13 11:22:39 26° 264° (W) 11:26:07 437.425
ESTCUBE 1 22 Sep 11:20:30 11:22:00 11° 90° (E) 11:23:30 437.505/2401.250
Max Valier Satellite 22 Sep 11:24:45 11:28:12 35° 287° (WNW) 11:31:37 145.860
UNISAT 6 22 Sep 11:29:53 11:31:49 13° 269° (W) 11:33:46 437.425
M-CUBED/EXP-1 PRIME 22 Sep 11:32:25 11:35:06 17° 62° (ENE) 11:37:41 437.505
DELFI C3 22 Sep 11:35:47 11:38:49 22° 291° (WNW) 11:41:50 145.870
NANOSAT C BR1 22 Sep 11:53:42 11:57:43 48° 73° (ENE) 12:01:47 145.865
LO-87 22 Sep 11:56:47 12:00:16 44° 99° (E) 12:03:44 145.935 - 145.965
RS-15 22 Sep 11:57:04 12:06:00 22° 16° (NNE) 12:14:39 29.354- 29.394
YUBILEINY 22 Sep 12:09:23 12:17:15 40° 87° (E) 12:25:08 435.215
O/OREOS (USA 219) 22 Sep 12:12:38 12:16:34 27° 60° (ENE) 12:20:30 437.305
DUCHIFAT 1 22 Sep 12:22:52 12:27:02 87° 258° (WSW) 12:31:16 145.980
Gurwin Techsat 1B 22 Sep 12:27:31 12:28:52 11° 58° (ENE) 12:30:15 435.225
AIST 2D 22 Sep 12:29:11 12:31:32 17° 266° (W) 12:33:56 435.315
POLYITAN 1 22 Sep 12:34:25 12:38:29 49° 260° (W) 12:42:36 437.675
EO-79 22 Sep 12:39:16 12:43:15 42° 261° (W) 12:47:17 145.935-145.965
Oscar 19 22 Sep 12:51:17 12:55:35 27° 67° (ENE) 12:59:55 437.125/150
QB50P2 22 Sep 12:52:49 12:56:24 27° 264° (W) 13:00:03 145.880/145.840
ESTCUBE 1 22 Sep 12:54:44 12:59:12 62° 286° (WNW) 13:03:36 437.505/2401.250
BUGSAT 1 22 Sep 13:04:24 13:08:23 71° 75° (ENE) 13:12:25 437.445
M-CUBED/EXP-1 PRIME 22 Sep 13:05:02 13:09:14 45° 255° (WSW) 13:13:10 437.505
NO-84 22 Sep 13:13:08 13:16:44 35° 131° (SE) 13:20:05 435.350 FM
VELOX 1 22 Sep 13:30:15 13:34:34 56° 100° (E) 13:38:53 145.980
NANOSAT C BR1 22 Sep 13:31:43 13:33:41 13° 269° (W) 13:35:39 145.865
LO-87 22 Sep 13:32:14 13:33:15 11° 294° (WNW) 13:34:17 145.935 - 145.965
50 SAT 22 Sep 13:40:17 13:42:45 19° 96° (E) 13:45:11 437.505
SPROUT 22 Sep 13:40:54 13:45:12 76° 283° (WNW) 13:49:28 437.525
O/OREOS (USA 219) 22 Sep 13:51:58 13:55:55 28° 257° (WSW) 13:59:51 437.305
AO-7 22 Sep 13:58:43 14:04:54 24° 54° (NE) 14:11:04 .
Gurwin Techsat 1B 22 Sep 14:02:39 14:07:58 84° 74° (ENE) 14:13:18 435.225
SO-50 22 Sep 14:04:13 14:08:04 29° 113° (ESE) 14:11:57 436.795
YUBILEINY 22 Sep 14:05:48 14:13:56 43° 286° (WNW) 14:22:06 435.215
RS-15 22 Sep 14:10:37 14:22:19 52° 47° (NE) 14:33:22 29.354- 29.394
Oscar 19 22 Sep 14:29:59 14:34:44 36° 263° (W) 14:39:30 437.125/150
UKube-1 22 Sep 14:39:54 14:44:07 53° 100° (E) 14:48:18 .
DX 1 22 Sep 14:43:44 14:48:06 86° 284° (WNW) 14:52:26 434.975-435.025
NO-84 22 Sep 14:50:54 14:54:09 27° 325° (NW) 14:57:12 435.350 FM
PCSat 22 Sep 14:53:59 14:59:07 45° 112° (ESE) 15:04:16 145.827
VELOX 1 22 Sep 15:08:23 15:10:32 14° 296° (WNW) 15:12:41 145.980
50 SAT 22 Sep 15:12:42 15:15:07 19° 291° (WNW) 15:17:33 437.505
ITAMSAT 1 22 Sep 15:31:16 15:36:18 58° 72° (ENE) 15:41:23 435.822/435.867
MOZHAYETS 4 22 Sep 15:41:43 15:45:46 29° 96° (E) 15:49:47
SO-50 22 Sep 15:44:29 15:48:27 30° 310° (NW) 15:52:27 436.795
Gurwin Techsat 1B 22 Sep 15:47:15 15:48:31 11° 271° (W) 15:49:47 435.225
AO-7 22 Sep 15:48:25 15:56:46 80° 253° (WSW) 16:05:09 .
ITUPSAT 1 22 Sep 15:57:36 16:02:09 41° 99° (E) 16:06:41 437.325
CUBESAT XI-V 22 Sep 16:07:19 16:07:54 10° 89° (E) 16:08:29 437.345
UKube-1 22 Sep 16:17:30 16:19:40 14° 296° (WNW) 16:21:50 .
DOVE 4 22 Sep 16:18:46 16:20:45 13° 65° (ENE) 16:22:42 437.250
RS-15 22 Sep 16:23:35 16:34:41 49° 251° (WSW) 16:45:14 29.354- 29.394
BEESAT 22 Sep 16:35:03 16:39:51 79° 285° (WNW) 16:44:38 436.000
PCSat 22 Sep 16:38:09 16:42:41 27° 310° (NW) 16:47:15 145.827
CUTE-I 22 Sep 17:12:07 17:15:14 16° 61° (ENE) 17:18:21 437.470
ITAMSAT 1 22 Sep 17:13:00 17:16:07 16° 268° (W) 17:19:15 435.822/435.867
MOZHAYETS 4 22 Sep 17:18:56 17:22:48 27° 292° (WNW) 17:26:39
XW-2C 22 Sep 17:24:35 17:27:01 16° 67° (ENE) 17:29:26 145.795 - 145.815
NUDT-PHONESAT 22 Sep 17:32:34 17:34:32 14° 66° (ENE) 17:36:31 437.300
LilacSat-2 22 Sep 17:34:35 17:37:39 23° 70° (ENE) 17:40:43 437.200
ITUPSAT 1 22 Sep 17:36:06 17:39:40 21° 295° (WNW) 17:43:13 437.325
CUBESAT XI-V 22 Sep 17:41:08 17:45:46 72° 284° (WNW) 17:50:19 437.345
AO-7 22 Sep 17:46:37 17:50:40 14° 271° (W) 17:54:43 .
KKS-1 22 Sep 17:47:46 17:52:02 44° 99° (E) 17:56:17 437.445
DOVE 4 22 Sep 17:53:36 17:58:02 56° 260° (W) 18:02:16 437.250
KAITUO 1B 22 Sep 17:57:28 18:00:46 29° 71° (ENE) 18:04:04 145.475/437.950
STARS 22 Sep 18:15:51 18:19:54 35° 98° (E) 18:23:58 437.465
XW-2D 22 Sep 18:23:23 18:27:13 90° 81° (E) 18:31:06 145.860 - 145.880
HO-68 22 Sep 18:27:19 18:33:41 37° 64° (ENE) 18:40:05 435.675
XW-2B 22 Sep 18:35:44 18:39:33 65° 259° (W) 18:43:23 145.730 - 145.750
XW-2F 22 Sep 18:36:45 18:40:34 67° 260° (W) 18:44:23 145.980 - 146.000
SEEDS 22 Sep 18:40:15 18:42:48 16° 66° (ENE) 18:45:21 437.485
CUTE-I 22 Sep 18:49:25 18:54:41 67° 258° (WSW) 18:59:59 437.470
XW-2C 22 Sep 18:57:24 19:00:55 33° 263° (W) 19:04:26 145.795 - 145.815
CUTE 1.7 + AOD 2 22 Sep 19:04:03 19:08:09 46° 73° (ENE) 19:12:17 437.475
NUDT-PHONESAT 22 Sep 19:04:33 19:08:02 38° 262° (W) 19:11:35 437.300
AAUSAT CUBESAT 2 22 Sep 19:07:11 19:09:16 14° 65° (ENE) 19:11:21 437.432
LilacSat-2 22 Sep 19:08:39 19:11:48 23° 265° (W) 19:14:58 437.200
CUBEBUG 2 22 Sep 19:20:52 19:24:47 38° 71° (ENE) 19:28:49 437.445
Tancredo 1 22 Sep 19:23:57 19:26:09 23° 134° (SE) 19:28:22 437.200
KKS-1 22 Sep 19:25:20 19:28:13 17° 295° (WNW) 19:31:06 437.445
UWE-3 22 Sep 19:30:35 19:34:16 28° 69° (ENE) 19:38:01 435.000/436.395/437.385
KAITUO 1B 22 Sep 19:32:09 19:34:45 18° 266° (W) 19:37:23 145.475/437.950
XW-2A 22 Sep 19:37:39 19:40:53 43° 75° (ENE) 19:44:11 145.665 - 145.685
NO-84 22 Sep 19:48:11 19:50:04 15° 28° (NNE) 19:51:53 435.350 FM
BEESAT 3 22 Sep 19:49:45 19:53:26 36° 115° (ESE) 19:57:10 437.485
STARS 22 Sep 19:52:46 19:56:00 20° 294° (WNW) 19:59:14 437.465
BEESAT 2 22 Sep 19:56:33 19:58:14 12° 108° (ESE) 19:59:55 435.950
SEEDS 22 Sep 20:14:03 20:18:06 43° 261° (W) 20:22:10 437.485
HO-68 22 Sep 20:14:35 20:21:16 42° 261° (W) 20:28:00 435.675
AO-73 22 Sep 20:18:13 20:22:20 46° 73° (ENE) 20:26:34 145.935
STRAND 1 22 Sep 20:18:51 20:23:56 57° 101° (E) 20:28:59 437.568
Oscar 11 22 Sep 20:18:59 20:22:53 33° 71° (ENE) 20:26:48 .
ZACube-1 22 Sep 20:20:15 20:24:27 55° 74° (ENE) 20:28:47 437.345
AAUSAT CUBESAT 2 22 Sep 20:40:14 20:44:17 49° 261° (W) 20:48:20 437.432
CUTE 1.7 + AOD 2 22 Sep 20:41:54 20:44:13 14° 269° (W) 20:46:31 437.475
DELFI C3 22 Sep 20:46:27 20:48:27 14° 66° (ENE) 20:50:27 145.870
ISS 22 Sep 20:53:35 20:56:32 32° 135° (SE) 20:59:30 437.550
Tancredo 1 22 Sep 20:58:16 21:00:37 26° 330° (NNW) 21:02:59 437.200
CUBEBUG 2 22 Sep 20:58:49 21:01:34 17° 268° (W) 21:04:23 437.445
UWE-3 22 Sep 21:07:16 21:10:41 23° 266° (W) 21:14:12 435.000/436.395/437.385
AO-85 22 Sep 21:09:55 21:13:48 90° 309° (NW) 21:17:44 145.980
JUGNU 22 Sep 21:17:58 21:18:51 10° 180° (S) 21:19:44 437.505
NO-84 22 Sep 21:24:48 21:27:40 50° 227° (SW) 21:30:24 435.350 FM
BEESAT 3 22 Sep 21:28:00 21:31:06 21° 312° (NW) 21:34:13 437.485
BEESAT 2 22 Sep 21:31:33 21:35:28 54° 304° (NW) 21:39:28 435.950
EO-88 22 Sep 21:32:12 21:35:11 24° 70° (ENE) 21:38:11 145.990 - 145.960
nSIGHT-1 22 Sep 21:34:50 21:38:03 81° 322° (NW) 21:41:19 .
UNISAT 6 22 Sep 21:44:33 21:46:44 13° 91° (E) 21:48:55 437.425
Oscar 11 22 Sep 21:55:48 21:59:03 20° 266° (W) 22:02:19 .
AO-73 22 Sep 21:56:22 21:58:49 15° 269° (W) 22:01:18 145.935
STRAND 1 22 Sep 21:59:17 22:02:37 18° 297° (WNW) 22:05:58 437.568
ZACube-1 22 Sep 21:59:18 22:01:05 12° 270° (W) 22:02:54 437.345
Max Valier Satellite 22 Sep 22:01:49 22:05:30 82° 78° (ENE) 22:09:16 145.860
TIGRISAT 22 Sep 22:07:23 22:10:58 21° 94° (E) 22:14:33 435.000
FO-29 22 Sep 22:11:49 22:17:19 74° 103° (ESE) 22:23:26 435.910
DELFI C3 22 Sep 22:19:01 22:22:48 43° 261° (W) 22:26:36 145.870
ESTCUBE 1 22 Sep 22:20:09 22:21:10 11° 62° (ENE) 22:22:12 437.505/2401.250
YUBILEINY 22 Sep 22:21:14 22:26:55 18° 63° (ENE) 22:32:33 435.215
ISS 22 Sep 22:30:04 22:33:00 29° 331° (NNW) 22:35:56 437.550
LO-87 22 Sep 22:32:50 22:35:02 16° 68° (ENE) 22:37:15 145.935 - 145.965
SO-50 22 Sep 22:35:53 22:39:35 23° 47° (NE) 22:43:18 436.795
AO-85 22 Sep 22:54:34 22:54:49 10° 320° (NW) 22:55:04 145.980
PRISM 22 Sep 23:00:30 23:04:21 41° 99° (E) 23:08:11 437.425
EO-88 22 Sep 23:06:03 23:08:47 20° 265° (W) 23:11:31 145.990 - 145.960
nSIGHT-1 22 Sep 23:12:41 23:14:48 16° 340° (NNW) 23:16:57 .
UNISAT 6 22 Sep 23:19:10 23:23:46 60° 286° (WNW) 23:28:24 437.425
PCSat 22 Sep 23:42:44 23:47:33 31° 52° (NE) 23:52:20 145.827
TIGRISAT 22 Sep 23:43:25 23:47:42 37° 289° (WNW) 23:52:00 435.000
ESTCUBE 1 22 Sep 23:52:46 23:57:18 78° 258° (WSW) 00:01:51 437.505/2401.250
AIST 2D 22 Sep 23:53:43 23:56:58 34° 98° (E) 00:00:10 435.315
FO-29 22 Sep 23:58:57 00:01:55 15° 298° (WNW) 00:05:02 435.910
LO-87 23 Sep 00:05:09 00:08:12 27° 263° (W) 00:11:18 145.935 - 145.965
DUCHIFAT 1 23 Sep 00:08:47 00:11:23 16° 93° (E) 00:13:59 145.980
ISS 23 Sep 00:09:12 00:10:18 11° 351° (N) 00:11:25 437.550
SO-50 23 Sep 00:15:51 00:20:12 42° 244° (WSW) 00:24:35 436.795
YUBILEINY 23 Sep 00:16:08 00:24:55 89° 264° (W) 00:33:42 435.215
POLYITAN 1 23 Sep 00:20:09 00:23:51 27° 96° (E) 00:27:31 437.675
EO-79 23 Sep 00:24:38 00:28:27 31° 97° (E) 00:32:14 145.935-145.965
VELOX 1 23 Sep 00:26:19 00:30:29 43° 72° (ENE) 00:34:39 145.980
SRMSAT 23 Sep 00:29:11 00:29:56 10° 181° (S) 00:30:41 437.500
SPROUT 23 Sep 00:32:47 00:36:59 70° 75° (ENE) 00:41:13 437.525
PRISM 23 Sep 00:36:54 00:39:16 15° 295° (WNW) 00:41:39 437.425
QB50P2 23 Sep 00:37:38 00:41:48 48° 100° (E) 00:45:56 145.880/145.840
BUGSAT 1 23 Sep 00:49:09 00:50:20 11° 91° (E) 00:51:31 437.445
NANOSAT C BR1 23 Sep 01:14:00 01:18:16 79° 286° (WNW) 01:22:31 145.865
PCSat 23 Sep 01:26:01 01:30:58 37° 250° (WSW) 01:35:52 145.827
AIST 2D 23 Sep 01:28:08 01:29:48 13° 293° (WNW) 01:31:29 435.315
UKube-1 23 Sep 01:33:14 01:37:13 39° 71° (ENE) 01:41:15 .
DX 1 23 Sep 01:37:55 01:42:14 72° 74° (ENE) 01:46:34 434.975-435.025
50 SAT 23 Sep 01:40:23 01:43:40 72° 257° (WSW) 01:46:59 437.505
DUCHIFAT 1 23 Sep 01:43:12 01:47:12 41° 288° (WNW) 01:51:12 145.980
Tancredo 1 23 Sep 01:44:32 01:46:49 24° 29° (NNE) 01:49:06 437.200
ISS 23 Sep 01:46:33 01:47:58 12° 12° (NNE) 01:49:23 437.550
